Location: Krakow
(50.0830°N, 19.9170°E)
Time: 20:13:24
(UTC+02:00)

HTV-X1 - Visible Passes

Search period start: 18 May 2026 00:00
Search period end: 28 May 2026 00:00
Orbit: 372 x 382 km, 51.6° (Epoch: 18 May)

Date Brightness Start Highest point End Pass type
(mag) Time Alt. Az. Time Alt. Az. Time Alt. Az.
18 May ? 22:07:44 10° WNW 22:10:49 88° SSW 22:12:41 22° ESE visible
18 May ? 23:43:54 10° W 23:44:46 15° WSW 23:44:46 15° WSW visible
19 May ? 21:06:43 10° WNW 21:09:47 70° N 21:12:52 10° E visible
19 May ? 22:42:40 10° W 22:45:35 41° SSW 22:45:54 39° S visible
20 May ? 21:41:35 10° WNW 21:44:38 70° SSW 21:47:02 15° ESE visible
20 May ? 23:18:04 10° W 23:19:07 14° WSW 23:19:07 14° WSW visible
21 May ? 22:16:33 10° W 22:19:17 29° SSW 22:20:15 24° S visible
22 May ? 21:15:21 10° WNW 21:18:22 52° SSW 21:21:22 10° SE visible
22 May ? 22:52:36 10° WSW 22:53:28 11° SW 22:53:28 11° SW visible
23 May ? 21:50:28 10° W 21:52:53 21° SW 21:54:39 14° S visible
25 May ? 21:24:31 10° WSW 21:26:23 15° SW 21:28:14 10° S visible
